Location: Cantaing
(50.1487°N, 3.1675°E)
Time: 11:19:53
(UTC+00:00)

Cosmos 220 Rocket - Pass Details

Date: 14 January 2026
Orbit: 540 x 575 km, 74.0° (Epoch: 11 February)

Event Time Altitude Azimuth Distance (km) Brightness Sun altitude
Exits shadow 06:47:02 - 339° (NNW) 2,605 6.8 -8.5°
Reaches altitude 10° 06:48:49 10° 342° (NNW) 1,895 6.2 -8.2°
Maximum altitude 06:52:59 60° 63° (ENE) 658 4.4 -7.6°
Drops below altitude 10° 06:57:07 10° 144° (SE) 1,865 7.6 -7.0°
Sets 06:59:19 0° 148° (SSE) 2,752 8.5 -6.7°
